sat.trackr.live / text

‹ back to catalog

QIANFAN-45

NORAD 62246 · 2024-232K

PAYLOAD ACTIVE UNKNOWN

§ Identity

Operator
Country
PRC
Launch date
2024-12-05
Launch site
TAISC
Launch vehicle
Mass (kg)
RCS (m²)

External: N2YO · Heavens-Above · Gunter

§ Orbital elements

Epoch: 2026-05-25T04:05:42.716256Z

Period
106.59 min
Inclination
89.0105°
Eccentricity
0.0016403
Mean motion
13.51005242 rev/d
Perigee alt
1,056.3 km
Apogee alt
1,080.8 km
Semi-major
7,446.7 km
B*
1.3996e-4
RAAN
24.8021°
Arg perigee
80.9246°
Mean anomaly
279.3760°
Rev number
12,132

§ Raw data

QIANFAN-451 62246U 24232K   26145.17063329  .00000103  00000+0  13996-3 0  99962 62246  89.0105  24.8021 0016403  80.9246 279.3760 13.51005242121321

JSON: /api/v1/satellites/62246 · /tle

For live sub-satellite position, see the globe view (requires WebGL).

§ Visibility from observer

Set your observer location to see the next 7 days of passes ≥ 10°. The values pass through the URL so the page stays shareable.

No JS? Fill the form by hand. The geolocation button needs JavaScript.